Weather History for Pompano Beach, FL

Change the Weather History Date:

Tuesday, April 1, 2014

  Actual Average Record
Temperature  
Mean Temperature 70 °F -  
Max Temperature 79 °F 83 °F 91 °F (1985)
Min Temperature 62 °F 64 °F 48 °F (1987)
Cooling Degree Days 5    
Growing Degree Days 20 (Base 50)    
Moisture  
Dew Point 57 °F    
Average Humidity 60    
Maximum Humidity 84    
Minimum Humidity 48    
Precipitation  
Precipitation 0.00 in - - ()
Sea Level Pressure  
Sea Level Pressure 30.15 in    
Wind  
Wind Speed 7 mph (East)    
Max Wind Speed 13 mph    
Max Gust Speed -    
Visibility 10 miles    
Events      
Averages and records for this station are not official NWS values.
T = Trace of Precipitation, MM = Missing Value Source: NWS Daily Summary

Daily Weather History Graph

Daily Weather History Graph

Search for Another Location

Airport:

Trip Planner

Search our weather history database for the weather conditions in past years. The results will help you decide how hot, cold, wet, or windy it might be!

Date:

Astronomy

Apr. 01, 2014 Rise Set
Actual Time 7:11 AM EDT 7:37 PM EDT
Civil Twilight 6:48 AM EDT 8:00 PM EDT
Nautical Twilight 6:21 AM EDT 8:27 PM EDT
Astronomical Twilight 5:53 AM EDT 8:55 PM EDT
Moon 8:24 AM EDT (4/1) 9:44 PM EDT (4/1)
Length of Visible Light 13h 12m
Length of Day
12h 25m
Waxing Crescent, 4% of the Moon is Illuminated
Apr 1
Waxing Crescent
Apr 7
First Quarter
Apr 15
Full
Apr 22
Last Quarter
Apr 29
New

Hourly Weather History & Observations

Time (EDT) Temp. Dew Point Humidity Pressure Visibility Wind Dir Wind Speed Gust Speed Precip Events Conditions
12:53 AM 71.1 °F 57.9 °F 63% 30.14 in 10.0 mi ESE 8.1 mph - N/A   Clear
1:53 AM 71.1 °F 57.9 °F 63% 30.14 in 10.0 mi East 4.6 mph - N/A   Clear
2:53 AM 70.0 °F 57.0 °F 63% 30.12 in 10.0 mi East 4.6 mph - N/A   Clear
3:53 AM 68.0 °F 57.0 °F 68% 30.11 in 10.0 mi ENE 3.5 mph - N/A   Clear
4:53 AM 63.0 °F 55.9 °F 78% 30.10 in 10.0 mi NNE 4.6 mph - N/A   Clear
5:53 AM 62.1 °F 57.0 °F 84% 30.11 in 10.0 mi Calm Calm - N/A   Clear
6:53 AM 68.0 °F 55.9 °F 65% 30.12 in 10.0 mi Variable 4.6 mph - N/A   Clear
7:53 AM 64.9 °F 57.0 °F 75% 30.14 in 10.0 mi East 3.5 mph - N/A   Clear
8:53 AM 73.9 °F 55.9 °F 53% 30.16 in 10.0 mi ENE 6.9 mph - N/A   Clear
9:53 AM 75.9 °F 55.9 °F 50% 30.17 in 10.0 mi East 12.7 mph - N/A   Clear
10:53 AM 77.0 °F 57.9 °F 52% 30.18 in 10.0 mi East 11.5 mph - N/A   Clear
11:53 AM 77.0 °F 57.9 °F 52% 30.19 in 10.0 mi East 10.4 mph - N/A   Clear
12:53 PM 78.1 °F 57.0 °F 48% 30.18 in 10.0 mi East 10.4 mph - N/A   Partly Cloudy
1:53 PM 78.1 °F 59.0 °F 52% 30.16 in 10.0 mi East 10.4 mph - N/A   Partly Cloudy
2:53 PM 78.1 °F 59.0 °F 52% 30.15 in 10.0 mi East 11.5 mph - N/A   Partly Cloudy
3:53 PM 77.0 °F 57.9 °F 52% 30.14 in 10.0 mi East 6.9 mph - N/A   Partly Cloudy
4:53 PM 77.0 °F 57.9 °F 52% 30.14 in 10.0 mi ENE 4.6 mph - N/A   Clear
5:53 PM 75.9 °F 59.0 °F 56% 30.14 in 10.0 mi East 9.2 mph - N/A   Clear
6:53 PM 75.0 °F 59.0 °F 57% 30.14 in 10.0 mi East 9.2 mph - N/A   Partly Cloudy
7:53 PM 72.0 °F 57.9 °F 61% 30.15 in 10.0 mi East 3.5 mph - N/A   Clear
8:53 PM 72.0 °F 57.0 °F 59% 30.16 in 10.0 mi East 5.8 mph - N/A   Clear
9:53 PM 72.0 °F 57.9 °F 61% 30.18 in 10.0 mi ENE 3.5 mph - N/A   Clear
10:53 PM 72.0 °F 57.0 °F 59% 30.18 in 10.0 mi East 6.9 mph - N/A   Clear
11:53 PM 71.1 °F 55.9 °F 59% 30.18 in 10.0 mi East 4.6 mph - N/A   Clear